Kuchera_Ratio
0.0 0.0 0.0 0.0 0.0 0.0 1.1 1.0 0.7 0.0 0.0 0.0 0.0 0.0 0.0 0.0 0.0 0.0 0.0 0.0 0.0 0.0 0.0 0.0 0.0 0.0 0.0 0.0 0.0 0.0 0.0 0.0 0.0 0.0 0.0 0.0 0.0 0.0 0.0 0.0 0.0 0.0 0.0
0.0 0.0 0.5 0.0 0.0 1.7 2.9 3.7 3.3 1.8 0.1 0.0 0.0 0.0 0.0 0.0 0.0 0.0 0.0 0.0 0.0 0.0 0.0 0.0 0.0 0.0 0.0 0.0 0.0 0.0 0.0 0.0 0.0 0.0 0.0 0.0 0.0 0.0 0.0 0.0 0.0 0.0 0.0
1.1 1.3 2.2 1.2 2.5 4.8 6.1 5.9 5.4 4.3 2.9 1.7 1.0 0.1 0.0 0.0 0.0 0.0 0.0 0.0 0.0 0.0 0.0 0.0 0.0 0.0 0.0 0.0 0.0 0.0 0.0 0.0 0.0 0.0 0.0 0.0 0.0 0.0 0.0 0.0 0.0 0.0 0.0
0.0 0.0 3.8 4.5 5.9 7.9 8.2 8.0 7.0 5.9 5.0 4.2 3.2 1.6 1.2 0.9 1.3 0.9 1.6 2.6 0.8 0.1 0.0 0.0 0.0 0.0 0.0 0.0 0.0 0.0 0.0 0.0 0.0 0.0 0.0 0.0 0.0 0.0 0.0 0.0 0.0 0.0 0.0
0.0 0.0 2.4 4.3 6.9 8.9 10.2 9.6 8.6 7.6 6.4 5.3 3.9 3.0 2.7 2.7 3.1 5.4 6.5 5.7 3.8 1.5 0.4 0.0 0.0 0.0 0.0 0.0 0.0 0.0 0.0 0.0 0.0 0.0 0.0 0.0 0.0 0.0 0.0 0.0 0.0 0.0 0.0
3.1 2.8 1.2 5.6 7.3 9.9 11.2 10.8 10.1 8.6 7.4 6.6 6.2 4.8 4.9 6.0 7.9 8.7 7.7 7.8 7.0 5.3 3.1 1.3 1.3 0.6 0.1 0.3 0.0 0.0 0.0 0.0 0.0 0.0 0.0 0.0 0.0 0.0 0.0 0.0 0.0 0.0 0.0
5.8 5.6 6.2 5.3 9.1 11.4 12.2 12.5 12.0 11.0 9.4 8.6 7.9 7.7 8.9 10.9 10.6 10.0 10.6 11.7 10.4 8.7 6.9 4.6 4.3 3.6 2.0 0.8 0.0 0.0 0.0 0.0 0.0 0.0 0.0 0.0 0.0 0.0 0.0 0.0 0.0 0.0 0.0
8.6 8.5 8.3 5.4 7.9 11.0 12.1 13.3 13.0 12.5 11.5 10.9 10.7 11.7 12.3 12.2 12.3 12.5 11.9 11.3 10.2 9.2 6.8 6.4 5.4 3.9 2.6 2.4 1.3 0.8 0.0 0.0 0.0 0.0 0.0 0.0 0.0 0.0 0.0 0.0 0.0 0.0 0.0
8.8 8.4 9.1 6.8 8.9 11.9 13.0 13.4 14.0 13.5 12.9 12.7 13.1 13.4 13.3 13.8 14.0 13.0 11.9 10.0 8.8 7.4 7.6 6.7 6.6 5.7 4.8 3.7 2.8 3.2 2.1 0.0 0.0 0.0 0.0 0.0 0.0 0.0 0.0 0.0 0.0 0.0 0.0
9.3 9.1 9.9 8.8 10.4 12.4 13.3 13.7 14.3 14.5 14.3 14.0 14.3 14.4 15.2 15.0 14.2 13.3 12.7 12.2 10.5 9.5 9.2 8.3 7.4 6.5 5.3 4.0 3.0 3.3 1.8 0.4 0.0 0.0 0.0 0.0 0.0 0.0 0.0 0.0 0.0 0.0 0.0
10.7 8.9 10.4 10.0 12.1 13.0 13.6 13.8 14.5 15.4 15.4 15.3 15.2 15.7 16.9 16.4 14.9 13.6 12.7 12.1 11.1 10.0 9.4 8.4 7.6 6.6 5.5 4.1 3.9 3.1 2.1 0.1 0.0 0.0 0.0 0.0 0.0 0.0 0.0 0.0 0.0 0.0 0.0
9.0 9.8 11.6 12.0 12.6 13.2 13.9 14.1 15.0 15.9 16.2 16.4 16.3 17.1 17.2 17.1 16.0 14.5 13.8 12.9 12.5 10.9 10.3 9.1 8.3 7.1 6.0 4.6 4.3 3.8 1.9 1.9 1.2 0.0 0.0 0.0 0.0 0.0 0.0 0.0 0.0 0.0 0.0
9.2 10.0 11.6 12.4 12.6 13.4 14.1 14.4 15.2 16.1 16.3 16.6 17.2 17.4 17.3 17.3 17.0 15.5 14.3 13.6 12.8 12.2 10.6 9.6 9.3 7.7 6.1 5.4 4.6 2.8 1.7 0.8 0.0 0.0 0.0 0.0 0.0 0.0 0.0 0.0 0.0 0.0 0.0
12.0 10.5 11.8 12.3 12.9 13.6 14.1 14.6 15.4 16.2 16.5 16.8 17.5 17.7 17.5 17.4 17.1 15.6 14.5 13.7 12.4 12.2 11.2 8.3 7.2 5.4 4.4 3.5 3.0 2.4 1.4 0.0 0.0 0.0 0.0 0.0 0.0 0.0 0.0 0.0 0.0 0.0 0.0
11.0 11.8 12.0 12.5 13.2 13.8 14.3 14.8 15.4 16.2 16.6 17.0 17.6 17.6 17.3 17.1 17.1 16.3 14.6 13.6 12.5 12.1 10.4 9.4 7.9 7.2 4.7 1.7 3.1 0.8 0.7 0.0 0.0 0.0 0.0 0.0 0.0 0.0 0.0 0.0 0.0 0.0 0.0
8.9 7.7 9.2 11.6 12.9 13.6 14.2 14.9 15.5 16.1 16.6 17.0 17.5 17.2 17.2 17.1 17.4 16.6 14.7 14.1 13.2 12.2 11.4 11.0 10.2 9.5 5.5 1.6 0.0 0.0 0.8 0.0 0.0 0.0 0.0 0.0 0.0 0.0 0.0 0.0 0.0 0.0 0.0
9.6 8.2 8.5 10.3 11.2 13.2 13.8 14.8 15.4 16.0 16.4 16.6 16.5 16.7 16.8 17.0 17.6 16.7 15.0 14.2 13.4 12.5 12.5 12.0 10.6 10.5 8.2 1.1 0.0 0.0 0.0 0.0 0.0 0.0 0.0 0.0 0.0 0.0 0.0 0.0 0.0 0.0 0.0
9.1 8.8 8.5 8.5 9.5 12.1 13.7 14.2 15.1 15.5 15.5 15.6 15.9 15.7 16.0 16.4 16.7 17.1 15.5 14.3 13.3 12.9 12.8 12.3 11.4 11.0 8.2 0.7 0.0 0.0 0.0 0.0 0.0 0.0 0.0 0.0 0.0 0.0 0.0 0.0 0.0 0.0 0.0
9.1 8.1 7.0 7.8 8.1 10.7 12.3 13.8 14.7 14.5 14.3 14.7 14.9 15.1 15.3 15.6 16.1 17.1 16.5 14.5 13.2 12.8 12.8 12.2 12.2 12.3 10.5 2.0 1.0 0.0 0.0 0.0 0.0 0.0 0.0 0.0 0.0 0.0 0.0 0.0 0.0 0.0 0.0
7.1 7.3 8.7 7.8 8.3 9.3 10.8 13.2 14.0 13.8 15.0 14.4 14.7 14.7 14.8 15.0 15.3 15.7 16.2 14.7 12.7 12.9 12.9 12.8 12.4 10.4 12.1 3.8 3.4 4.9 6.9 4.2 0.0 0.0 0.0 0.0 0.0 0.0 0.0 0.0 0.0 0.0 0.0
11.2 9.5 7.4 10.0 9.8 8.5 11.3 13.8 13.9 14.4 14.4 14.6 14.5 14.7 14.8 14.7 14.8 14.6 15.1 15.1 13.6 12.9 13.4 13.8 13.1 12.8 11.6 9.4 4.0 4.0 7.6 0.8 0.0 0.0 0.0 0.0 0.0 0.0 0.0 0.0 0.0 0.0 0.0
12.6 12.0 11.7 10.8 9.4 9.2 12.1 13.8 13.9 14.1 14.5 14.6 14.4 14.7 14.8 14.7 14.6 14.5 14.5 15.1 14.8 14.4 14.5 14.3 14.2 13.5 12.7 8.0 7.0 5.6 5.7 6.7 3.1 0.0 0.0 0.0 0.0 0.0 0.0 0.0 0.0 0.0 0.0
13.0 12.7 12.1 11.5 10.3 10.4 12.1 14.0 13.3 14.0 14.5 14.4 14.8 14.9 14.8 14.3 14.7 15.1 15.4 15.8 15.2 15.2 15.5 15.4 15.3 14.7 13.1 12.4 8.0 7.5 7.3 7.7 7.8 3.3 1.9 0.0 0.0 0.0 0.0 0.0 0.0 0.0 0.0
14.0 14.0 13.3 12.8 12.7 11.9 11.3 12.7 13.4 14.1 14.6 14.9 15.1 15.1 15.2 14.8 15.0 14.2 15.1 16.4 15.1 15.3 15.6 16.6 16.4 15.1 13.8 12.7 12.2 12.4 12.3 10.9 10.4 9.4 6.0 1.5 0.0 0.0 0.0 0.0 0.0 0.0 0.0
14.2 14.6 15.6 14.8 13.6 11.9 12.7 12.7 13.2 14.3 14.6 15.0 15.0 15.5 15.4 15.6 15.4 15.3 14.9 15.2 14.5 12.7 14.7 15.3 15.9 15.4 15.1 13.0 9.1 9.9 12.8 12.8 12.2 11.8 9.9 7.7 6.0 3.7 3.3 0.8 0.3 0.0 0.0
15.1 15.6 16.3 16.6 15.2 13.6 13.4 13.5 13.8 14.3 14.9 15.0 14.8 15.9 16.1 16.1 15.6 15.8 15.6 10.2 9.7 8.9 8.9 8.8 11.4 13.0 9.6 8.8 9.2 10.1 9.6 11.0 11.2 12.6 11.3 10.6 9.5 8.9 9.0 6.7 5.4 4.4 1.0